Torna al catalogo

KUIPER-00244

AttivoComunicazioniLEO
NORAD 68583·PAYLOAD·🇺🇸 United States

Lanciato Apr 4, 2026 da Cape Canaveral Space Force Station

Loading…

Prossimi Passaggi (prossime 24 ore)

TLE

AggiornatoSource: CelesTrak SupGP

Epoca: Sep 14, 2026, 19:01 UTC

1 68583C 26072L   26257.79276620 -.00000595  00000+0 -77885-4 0  2574
2 68583  51.8983 144.4265 0001042  89.8529 129.1571 14.79923248    16

Traccia KUIPER-00244 in tempo reale con AllMySat

Download on the App Store